User: anonymous   Login
Location: Thompson
(55.7500°N, 97.8670°W)
Time: 09:59:56
(UTC-05:00)
Language:

Cosmos 1833 Rocket - Orbit

View from above orbital plane
View from above orbital plane
View from above satellite
View from above satellite

Ground track
Ground track

The orbit data is extracted from the following two-line orbital elements,

1 17590U 87027B   16237.51598140  .00000021  00000-0  34495-4 0  9990
2 17590  71.0027  54.6804 0004239  10.2258 349.8951 14.16731433522106
Epoch (UTC): 24 August 2016 12:23:00
Eccentricity: 0.0004239
inclination: 71.0027°
perigee height: 833 km
apogee height: 839 km
right ascension of ascending node: 54.6804°
argument of perigee: 10.2258°
revolutions per day: 14.16731433
mean anomaly at epoch: 349.8951°
orbit number at epoch: 52210

The dashed part of the orbit path shows where the satellite is in the earth's shadow,  

DLR